Theta_e
314 313 314 312 309 308 311 310 310 309 309 309 309 309 308 308 308 307 307 307 306 308
310 308 307 309 310 310 310 310 308 306 306 307 308 310 310 308 307 308 308 307 307 306
306 306 306 306 305 304 301 302 303 304 304 305 306 307 309 310 311 310 310 308 306 306
304 305 305 304 303 302 302 303 304 304 304 305 305 306 305 307 307 307 307 307 307 308
303 302 303 303 303 303 303 304 303 304 303 304 304 304 305 306 308 306 305 307 307 308
302 301 303 302 303 303 302 302 302 302 301 303 305 305 305 308 309 307 307 307 308 309
300 303 301 303 302 302 302 302 301 302 303 304 306 306 305 307 306 309 308 309 310 310
303 303 302 302 302 302 302 302 302 303 303 303 306 308 305 306 305 304 306 308 312 313
303 303 303 302 302 300 300 301 302 303 304 302 307 306 306 306 301 303 303 307 312 314
303 303 302 302 301 299 299 299 300 302 303 303 304 305 303 305 302 302 303 305 310 312
304 303 303 301 300 299 298 299 300 302 303 302 304 305 303 304 302 304 307 309 310 307
305 303 303 301 300 299 297 299 300 302 302 302 302 303 302 302 306 309 309 312 309 308
305 304 302 301 300 298 299 300 302 303 302 304 303 303 301 302 308 306 305 305 306 307
305 304 303 302 299 298 300 301 299 300 298 298 301 304 301 298 308 306 304 303 304 307
Wind_Speed
5 3 4 5 3 2 2 4 5 6 4 7 7 6 6 4 5 6 6 7 6 5
7 6 4 2 1 2 4 4 6 6 6 7 7 8 6 4 6 5 5 6 6 5
4 4 3 2 3 5 6 5 7 7 7 7 7 8 7 4 5 5 6 5 6 6
3 4 5 4 4 7 5 6 7 7 8 9 9 8 6 6 7 7 6 6 6 8
4 3 3 3 6 6 6 7 8 8 8 9 9 9 7 8 7 6 7 7 6 9
5 4 4 5 6 6 7 7 8 7 7 8 9 9 7 6 6 6 6 7 7 8
4 4 4 4 5 6 6 7 8 8 7 7 9 8 5 5 6 7 6 7 8 9
4 5 3 5 6 6 6 6 6 9 9 5 5 3 4 5 6 7 8 8 9 7
6 5 5 5 6 6 7 7 6 7 7 7 2 6 8 8 6 6 7 7 8 5
6 5 5 5 4 7 7 6 6 7 5 6 5 6 6 9 5 6 7 5 5 2
6 5 4 3 5 6 4 5 5 6 6 5 5 10 10 9 5 5 6 5 6 4
7 5 4 4 6 6 4 4 4 5 7 6 6 8 11 6 4 6 3 3 5 5
7 7 6 6 6 4 4 5 4 6 6 8 6 9 11 4 3 4 3 5 5 4
7 7 7 5 3 4 6 5 4 4 5 6 5 7 10 5 2 1 1 3 2 2
Wind_Direction
111 91 55 49 42 357 281 319 305 305 285 262 256 248 245 245 246 234 237 243 230 234
78 91 106 140 196 304 301 265 269 303 300 292 288 282 263 255 269 254 247 246 249 231
141 137 172 199 246 261 270 287 309 300 292 283 284 283 279 277 265 266 269 255 248 243
170 195 208 221 259 268 293 303 287 283 285 287 287 285 278 288 272 257 256 262 241 254
230 263 288 262 278 306 297 286 276 279 278 283 286 280 269 280 283 258 262 257 256 255
276 296 236 268 291 300 290 289 286 282 279 286 287 290 279 284 301 269 258 259 253 255
289 249 231 261 284 281 286 295 298 295 280 290 297 293 296 312 308 297 288 275 267 259
243 197 221 267 278 288 312 301 310 312 302 307 310 329 347 318 308 301 296 286 280 258
174 206 239 268 286 303 320 318 324 316 311 319 62 325 322 327 295 296 290 303 318 42
191 220 249 261 286 301 312 318 315 311 320 309 292 273 291 313 299 289 289 287 289 60
205 222 251 264 276 279 289 301 301 302 313 302 302 294 302 321 309 300 286 268 174 149
220 226 244 264 269 278 274 287 276 289 307 312 300 311 314 332 334 329 338 86 121 130
219 227 239 254 257 261 251 266 278 296 306 304 308 310 311 356 16 356 60 61 54 84
215 231 237 262 231 258 282 290 286 289 309 316 306 311 307 81 32 326 321 87 82 107